TITAN 3C TRANSTAGE DEB, 1964

Orbit data source: Space-Track

TITAN 3C TRANSTAGE DEB, 1964 is space debris in LEO originally from a launch on Fri, 15 Oct 1965 UTC launched from the Air Force Eastern Test Range (AFETR). Debris objects in space refer to the collection of defunct objects orbiting the Earth. Examples of debris include non-operational satellites, rocket bodies, and fragments generated from explosions, collisions, or faulty payload assembly.

Loading next visibility...
Identifier
1964, 1965-082GZ
Orbit
LEO
Country
Flag of USUS
Related business
Manufacturer
Unknown
Mission
Spacecraft
Bus & Motor
Unknown
Mass
Unknown
Launch date (UTC)
1965-10-15 (61 years ago)
Launch vehicle
Unknown
Launch site
Air Force Eastern Test Range (AFETR)
Object type
Payload
Rocket body
Debris
Shape & HBR
Unknown shape, 0.1 m
Radar Cross Section
Medium (>0.1 m² and <1 m²)

Expand to show TLE details & history
Last TLE update: 1 day ago

TLE from 1 day ago
0 TITAN 3C TRANSTAGE DEB
1 01964U 65082GZ  26236.04498771  .00001155  00000-0  39330-3 0  9993
2 01964  32.1975 127.3745 0174044  71.1446 290.7977 14.26460071127340
Epoch: 2026-08-24T01:04Z
TLE epoch observation values (Epoch: 2026-08-24T01:04:46.938Z)
Latitude
-0.00001°
Longitude
138.84658°
Altitude
759.813 km
Speed
7.499 km/s
True Right ascension
08h 29m 29s
True Declination
0° 00' 00"
Sunlit
Object was in daylight at epoch
Visualization orbit readout
Latitude
Unknown
Longitude
Unknown
Altitude
Unknown
Speed
Unknown
Apparent Right ascension
Unknown
Apparent Declination
Unknown
Sunlit
N/A
Visualization observer readout
Local Sidereal Time
15:52:48
Azimuth
Unknown
Elevation
Unknown
Doppler factor
Unknown
Orbital elements
Apogee altitude
932.171 km
Perigee altitude
682.061 km
Semi-major axis
7,185.253 km
Eccentricity
0.0174
Inclination
32.1975°
RAAN
127.3745°
Arg. of periapsis
71.1446°
True anomaly
288.91908°
Mean anomaly
290.7977°
Eccentric anomaly
289.85981°
Mean motion
3.56353 °/min
Orbital period
101.02 mins
BSTAR
0.0003933

Documentation

Showing up to 5 results
|